Tracking 31028 objects as of 17-Jul-2025
HD Live streaming from Space Station
objects crossing your sky now

SL-16 DEB

Track SL-16 DEB now!
10-day predictions


NORAD ID: 39886
Int'l Code: 1993-016BL
Perigee: 619.0 km
Apogee: 686.5 km
Inclination: 71.0 °
Period: 97.6 minutes
Semi major axis: 7023 km
RCS: 0.0136 m2 (small)
Launch date: March 26, 1993
Source: Commonwealth of Independent States (former USSR) (CIS)
Launch site: TYURATAM MISSILE AND SPACE COMPLEX (TTMTR)

Note: This is SATELLITE DEBRIS
Your satellite tracking list
Your tracking list is empty




NASA's NSSDC Master Catalog

Two Line Element Set (TLE):
1 39886U 93016BL  25196.75344420  .00003604  00000-0  53677-3 0  9999
2 39886  71.0090   9.6738 0048075  58.1597 302.4223 14.74847311592614
Source of the keplerian elements: AFSPC